Time,TemperatureF,DewpointF,PressureIn,WindDirection,WindDirectionDegrees,WindSpeedMPH,WindSpeedGustMPH,Humidity,HourlyPrecipIn,Conditions,Clouds,dailyrainin,SolarRadiationWatts/m^2,SoftwareType,DateUTC
2013-05-19 00:00:00,66.0,55.0,-100.00,East,90,3.0,-999.0,67,-99.99,,,-99.99,0.000000,,2013-05-19 04:00:00,
2013-05-19 00:42:00,66.0,55.0,-100.00,East,90,3.0,-999.0,67,-99.99,,,-99.99,0.000000,,2013-05-19 04:42:00,
2013-05-19 00:53:00,66.0,55.0,-100.00,East,90,3.0,-999.0,67,-99.99,,,-99.99,0.000000,,2013-05-19 04:53:00,
2013-05-19 01:00:00,65.0,53.0,-100.00,ESE,112,3.0,-999.0,65,-99.99,,,-99.99,0.000000,,2013-05-19 05:00:00,
2013-05-19 01:42:00,65.0,53.0,-100.00,ESE,112,3.0,-999.0,65,-99.99,,,-99.99,0.000000,,2013-05-19 05:42:00,
2013-05-19 01:52:00,65.0,53.0,-100.00,ESE,112,3.0,-999.0,65,-99.99,,,-99.99,0.000000,,2013-05-19 05:52:00,
2013-05-19 02:00:00,63.0,51.0,-100.00,East,90,4.0,-999.0,64,-99.99,,,-99.99,0.000000,,2013-05-19 06:00:00,
2013-05-19 02:42:00,63.0,51.0,-100.00,East,90,4.0,-999.0,64,-99.99,,,-99.99,0.000000,,2013-05-19 06:42:00,
2013-05-19 02:52:00,63.0,51.0,-100.00,East,90,4.0,-999.0,64,-99.99,,,-99.99,0.000000,,2013-05-19 06:52:00,
2013-05-19 03:00:00,62.0,50.0,-100.00,East,90,5.0,-999.0,64,-99.99,,,-99.99,0.000000,,2013-05-19 07:00:00,
2013-05-19 03:42:00,62.0,50.0,-100.00,East,90,5.0,-999.0,64,-99.99,,,-99.99,0.000000,,2013-05-19 07:42:00,
2013-05-19 03:52:00,62.0,50.0,-100.00,East,90,5.0,-999.0,64,-99.99,,,-99.99,0.000000,,2013-05-19 07:52:00,
2013-05-19 04:00:00,61.0,48.0,-100.00,East,90,5.0,-999.0,62,-99.99,,,-99.99,0.000000,,2013-05-19 08:00:00,
2013-05-19 04:42:00,61.0,48.0,-100.00,East,90,5.0,-999.0,62,-99.99,,,-99.99,0.000000,,2013-05-19 08:42:00,
2013-05-19 04:52:00,61.0,48.0,-100.00,East,90,5.0,-999.0,62,-99.99,,,-99.99,0.000000,,2013-05-19 08:52:00,
2013-05-19 05:00:00,60.0,47.0,-100.00,East,90,6.0,-999.0,62,-99.99,,,-99.99,0.000000,,2013-05-19 09:00:00,
2013-05-19 05:43:00,60.0,47.0,-100.00,East,90,6.0,-999.0,62,-99.99,,,-99.99,0.000000,,2013-05-19 09:43:00,
2013-05-19 05:53:00,60.0,47.0,-100.00,East,90,6.0,-999.0,62,-99.99,,,-99.99,0.000000,,2013-05-19 09:53:00,
2013-05-19 06:00:00,59.0,47.0,-100.00,East,90,5.0,-999.0,64,-99.99,,,-99.99,0.000000,,2013-05-19 10:00:00,
2013-05-19 06:42:00,59.0,47.0,-100.00,East,90,5.0,-999.0,64,-99.99,,,-99.99,0.000000,,2013-05-19 10:42:00,
2013-05-19 06:53:00,59.0,47.0,-100.00,East,90,5.0,-999.0,64,-99.99,,,-99.99,0.000000,,2013-05-19 10:53:00,
2013-05-19 07:00:00,58.0,47.0,-100.00,East,90,6.0,-999.0,66,-99.99,,,-99.99,10.440000,,2013-05-19 11:00:00,
2013-05-19 07:42:00,58.0,47.0,-100.00,East,90,6.0,-999.0,66,-99.99,,,-99.99,10.440000,,2013-05-19 11:42:00,
2013-05-19 07:53:00,58.0,47.0,-100.00,East,90,6.0,-999.0,66,-99.99,,,-99.99,10.440000,,2013-05-19 11:53:00,
2013-05-19 08:00:00,60.0,47.0,-100.00,ESE,112,6.0,-999.0,63,-99.99,,,-99.99,103.239998,,2013-05-19 12:00:00,
2013-05-19 08:42:00,60.0,47.0,-100.00,ESE,112,6.0,-999.0,63,-99.99,,,-99.99,103.239998,,2013-05-19 12:42:00,
2013-05-19 08:52:00,60.0,47.0,-100.00,ESE,112,6.0,-999.0,63,-99.99,,,-99.99,103.239998,,2013-05-19 12:52:00,
2013-05-19 09:00:00,65.0,49.0,-100.00,SE,135,5.0,-999.0,57,-99.99,,,-99.99,242.440002,,2013-05-19 13:00:00,
2013-05-19 09:42:00,65.0,49.0,-100.00,SE,135,5.0,-999.0,57,-99.99,,,-99.99,242.440002,,2013-05-19 13:42:00,
2013-05-19 09:52:00,65.0,49.0,-100.00,SE,135,5.0,-999.0,57,-99.99,,,-99.99,242.440002,,2013-05-19 13:52:00,
2013-05-19 10:00:00,70.0,52.0,-100.00,SSE,157,5.0,-999.0,53,-99.99,,,-99.99,416.440002,,2013-05-19 14:00:00,
2013-05-19 10:42:00,70.0,52.0,-100.00,SSE,157,5.0,-999.0,53,-99.99,,,-99.99,416.440002,,2013-05-19 14:42:00,
2013-05-19 10:52:00,70.0,52.0,-100.00,SSE,157,5.0,-999.0,53,-99.99,,,-99.99,416.440002,,2013-05-19 14:52:00,
2013-05-19 11:00:00,74.0,55.0,-100.00,SSW,202,3.0,-999.0,50,-99.99,,,-99.99,542.880005,,2013-05-19 15:00:00,
2013-05-19 11:43:00,74.0,55.0,-100.00,SSW,202,3.0,-999.0,50,-99.99,,,-99.99,542.880005,,2013-05-19 15:43:00,
2013-05-19 11:53:00,74.0,55.0,-100.00,SSW,202,3.0,-999.0,50,-99.99,,,-99.99,542.880005,,2013-05-19 15:53:00,
2013-05-19 12:00:00,78.0,56.0,-100.00,WSW,247,3.0,-999.0,47,-99.99,,,-99.99,675.119995,,2013-05-19 16:00:00,
2013-05-19 12:42:00,78.0,56.0,-100.00,WSW,247,3.0,-999.0,47,-99.99,,,-99.99,675.119995,,2013-05-19 16:42:00,
2013-05-19 12:53:00,78.0,56.0,-100.00,WSW,247,3.0,-999.0,47,-99.99,,,-99.99,675.119995,,2013-05-19 16:53:00,
2013-05-19 13:00:00,80.0,57.0,-100.00,SSW,202,5.0,-999.0,44,-99.99,,,-99.99,719.200012,,2013-05-19 17:00:00,
2013-05-19 13:43:00,80.0,57.0,-100.00,SSW,202,5.0,-999.0,44,-99.99,,,-99.99,719.200012,,2013-05-19 17:43:00,
2013-05-19 13:52:00,80.0,57.0,-100.00,SSW,202,5.0,-999.0,44,-99.99,,,-99.99,719.200012,,2013-05-19 17:52:00,
2013-05-19 14:00:00,83.0,56.0,-100.00,South,180,7.0,-999.0,40,-99.99,,,-99.99,847.960022,,2013-05-19 18:00:00,
2013-05-19 14:43:00,83.0,56.0,-100.00,South,180,7.0,-999.0,40,-99.99,,,-99.99,847.960022,,2013-05-19 18:43:00,
2013-05-19 14:53:00,83.0,56.0,-100.00,South,180,7.0,-999.0,40,-99.99,,,-99.99,847.960022,,2013-05-19 18:53:00,
2013-05-19 15:00:00,84.0,56.0,-100.00,South,180,8.0,-999.0,38,-99.99,,,-99.99,816.640015,,2013-05-19 19:00:00,
2013-05-19 15:42:00,84.0,56.0,-100.00,South,180,8.0,-999.0,38,-99.99,,,-99.99,816.640015,,2013-05-19 19:42:00,
2013-05-19 15:52:00,84.0,56.0,-100.00,South,180,8.0,-999.0,38,-99.99,,,-99.99,816.640015,,2013-05-19 19:52:00,
2013-05-19 16:00:00,85.0,56.0,-100.00,SSE,157,8.0,-999.0,37,-99.99,,,-99.99,731.960022,,2013-05-19 20:00:00,
2013-05-19 16:42:00,85.0,56.0,-100.00,SSE,157,8.0,-999.0,37,-99.99,,,-99.99,731.960022,,2013-05-19 20:42:00,
2013-05-19 16:52:00,85.0,56.0,-100.00,SSE,157,8.0,-999.0,37,-99.99,,,-99.99,731.960022,,2013-05-19 20:52:00,
2013-05-19 17:00:00,86.0,56.0,-100.00,South,180,8.0,-999.0,35,-99.99,,,-99.99,664.679993,,2013-05-19 21:00:00,
2013-05-19 17:43:00,86.0,56.0,-100.00,South,180,8.0,-999.0,35,-99.99,,,-99.99,664.679993,,2013-05-19 21:43:00,
2013-05-19 17:53:00,86.0,56.0,-100.00,South,180,8.0,-999.0,35,-99.99,,,-99.99,664.679993,,2013-05-19 21:53:00,
2013-05-19 18:00:00,86.0,55.0,-100.00,South,180,8.0,-999.0,34,-99.99,,,-99.99,495.320007,,2013-05-19 22:00:00,
2013-05-19 18:43:00,86.0,55.0,-100.00,South,180,8.0,-999.0,34,-99.99,,,-99.99,495.320007,,2013-05-19 22:43:00,
2013-05-19 18:53:00,86.0,55.0,-100.00,South,180,8.0,-999.0,34,-99.99,,,-99.99,495.320007,,2013-05-19 22:53:00,
2013-05-19 19:00:00,85.0,54.0,-100.00,South,180,9.0,-999.0,34,-99.99,,,-99.99,327.119995,,2013-05-19 23:00:00,
2013-05-19 19:42:00,85.0,54.0,-100.00,South,180,9.0,-999.0,34,-99.99,,,-99.99,327.119995,,2013-05-19 23:42:00,
2013-05-19 19:52:00,85.0,54.0,-100.00,South,180,9.0,-999.0,34,-99.99,,,-99.99,327.119995,,2013-05-19 23:52:00,
2013-05-19 20:00:00,83.0,56.0,-100.00,SSE,157,8.0,-999.0,39,-99.99,,,-99.99,174.000000,,2013-05-20 00:00:00,
2013-05-19 20:42:00,83.0,56.0,-100.00,SSE,157,8.0,-999.0,39,-99.99,,,-99.99,174.000000,,2013-05-20 00:42:00,
2013-05-19 20:52:00,83.0,56.0,-100.00,SSE,157,8.0,-999.0,39,-99.99,,,-99.99,174.000000,,2013-05-20 00:52:00,
2013-05-19 21:00:00,80.0,57.0,-100.00,South,180,4.0,-999.0,46,-99.99,,,-99.99,24.360001,,2013-05-20 01:00:00,
2013-05-19 21:42:00,80.0,57.0,-100.00,South,180,4.0,-999.0,46,-99.99,,,-99.99,24.360001,,2013-05-20 01:42:00,
2013-05-19 21:52:00,80.0,57.0,-100.00,South,180,4.0,-999.0,46,-99.99,,,-99.99,24.360001,,2013-05-20 01:52:00,
2013-05-19 22:00:00,75.0,58.0,-100.00,SSE,157,2.0,-999.0,55,-99.99,,,-99.99,0.000000,,2013-05-20 02:00:00,
2013-05-19 22:42:00,75.0,58.0,-100.00,SSE,157,2.0,-999.0,55,-99.99,,,-99.99,0.000000,,2013-05-20 02:42:00,
2013-05-19 22:52:00,75.0,58.0,-100.00,SSE,157,2.0,-999.0,55,-99.99,,,-99.99,0.000000,,2013-05-20 02:52:00,
2013-05-19 23:00:00,74.0,59.0,-100.00,South,180,3.0,-999.0,59,-99.99,,,-99.99,0.000000,,2013-05-20 03:00:00,
2013-05-19 23:43:00,74.0,59.0,-100.00,South,180,3.0,-999.0,59,-99.99,,,-99.99,0.000000,,2013-05-20 03:43:00,
2013-05-19 23:53:00,74.0,59.0,-100.00,South,180,3.0,-999.0,59,-99.99,,,-99.99,0.000000,,2013-05-20 03:53:00,